Flag for Germany Weather past 2 weeks in Neu-Isenburg, Hesse, Germany

Now
62 °F

Overcast.


Feels Like: 62 °F
Forecast: 51 / 71 °F
Wind: 2 mph from Northeast

Location: Frankfurt / M-Flughafen

Current Time: May 23, 2015 at 11:06:41 AM

Latest Report: May 23, 2015 at 10:00 AM


Visibility: 28 mi

Pressure: 30.14 "Hg

Humidity: 50%

Dew point: 43 °F

Location of Neu-IsenburgLocation

Historic Weather in Neu-Isenburg — Graph

°F

Neu-Isenburg temperature yesterday

Maximum temperature yesterday: 67 °F (at 5:00 PM)
Minimum temperature yesterday: 40 °F (at 4:00 AM)
Average temperature yesterday: 57 °F

Past Weeks' High & Low Weather Summary

 TemperatureHumidityPressure
High83 °F (May 12, 5:00 PM)98% (May 10, 4:00 AM)30.35 "Hg (May 10, 4:00 AM)
Low40 °F (May 21, 4:00 AM)25% (May 18, 3:00 PM)29.67 "Hg (May 19, 3:00 AM)
Average59 °F59%30.08 "Hg
* Reported May 8 10:00 AM — May 23 10:00 AM, Neu-Isenburg, Weather by CustomWeather, © 2015

Note: Actual official high and low records may vary slightly from our data, if they occured in-between our weather recording intervals... More about our weather records

Advertising

Neu-Isenburg weather history for previous 24 hours

 ConditionsComfort  
Time TempWeatherWind HumidityBarometerVisibility
10:00 AM
Sat, May 23
62 °FOvercast.2 mph50%30.14 "Hg28 mi
9:00 AM61 °FOvercast.1 mph55%30.15 "Hg28 mi
8:00 AM59 °FOvercast.2 mph59%30.14 "Hg28 mi
7:00 AM58 °FOvercast.2 mph60%30.14 "Hg28 mi
5:00 AM58 °FOvercast.3 mph60%30.14 "Hg22 mi
4:00 AM57 °FOvercast.2 mph65%30.14 "Hg22 mi
3:00 AM58 °FOvercast.2 mph65%30.15 "Hg25 mi
2:00 AM57 °FOvercast.1 mph65%30.16 "Hg25 mi
1:00 AM58 °FPassing clouds.1 mph60%30.18 "Hg25 mi
12:00 AM57 °FPassing clouds.1 mph63%30.19 "Hg28 mi
11:00 PM
Fri, May 22
60 °FPassing clouds.1 mph53%30.19 "Hg28 mi
10:00 PM60 °FOvercast.1 mph52%30.19 "Hg28 mi
9:00 PM64 °FPartly sunny.2 mph39%30.18 "Hg31 mi
8:00 PM67 °FPartly sunny.3 mph32%30.18 "Hg31 mi
7:00 PM67 °FPartly sunny.2 mph35%30.18 "Hg31 mi
6:00 PM67 °FScattered clouds.2 mph32%30.19 "Hg31 mi
5:00 PM67 °FScattered clouds.1 mph31%30.21 "Hg31 mi
4:00 PM67 °FScattered clouds.2 mph30%30.23 "Hg31 mi
3:00 PM66 °FScattered clouds.3 mph30%30.24 "Hg31 mi
2:00 PM67 °FPassing clouds.3 mph29%30.26 "Hg31 mi
1:00 PM64 °FPassing clouds.3 mph32%30.29 "Hg31 mi
12:00 PM64 °FPassing clouds.2 mph33%30.31 "Hg31 mi
Weather by CustomWeather, © 2015

See weather overviewHow to use our weather pages